Regional Weather Roundup
Issued by NWS Newport/Morehead, NC

Current Version | Previous Version | Text Only | Print | Product List | Glossary On
Versions: 1 2 3 4 5 6 7 8 9 10 11 12 13 14 15 16 17 18 19 20 21 22 23 24 25 26 27 28 29 30 31 32 33 34 35 36 37 38 39 40 41 42 43 44 45 46 47 48 49 50
010
ASUS42 KMHX 271825
RWRMHX
WEATHER ROUNDUP FOR EASTERN NORTH CAROLINA
NATIONAL WEATHER SERVICE NEWPORT/MOREHEAD CITY NC
100 PM EST MON FEB 27 2017

NOTE: "FAIR" INDICATES FEW OR NO CLOUDS BELOW 12,000 FEET
WITH NO SIGNIFICANT WEATHER AND/OR OBSTRUCTIONS TO VISIBILITY

NCZ015>017-031-032-045>047-102-103-271900-
NORTH COAST

CITY           SKY/WX    TMP DP  RH WIND       PRES   REMARKS
EDENTON        SUNNY     64  26  24 S9        30.42F
ELIZABETH CITY SUNNY     62  24  23 S12       30.43F
KITTY HAWK     NOT AVBL
MANTEO         SUNNY     61  39  44 W5        30.44F

$$

NCZ045>047-081-094-103-104-271900-
CENTRAL COAST

CITY           SKY/WX    TMP DP  RH WIND       PRES   REMARKS
FRISCO         PTSUNNY   62  43  49 NE8       30.43F

$$

NCZ095-097-098-100-101-271900-
SOUTHERN COAST

CITY           SKY/WX    TMP DP  RH WIND       PRES   REMARKS
BEAUFORT       CLOUDY    67  47  48 SE8       30.42F
CEDAR ISLAND   NOT AVBL
JACKSONVILLE   MOSUNNY   67  45  45 SE7       30.41F
PINEY ISLAND   PTCLDY   N/A N/A N/A NE13      30.43F
WILMINGTON     PTSUNNY   65  44  46 VRB3      30.41F


$$

NCZ011>013-027>030-043-044-078>080-089-090>093-098-271900-
COASTAL PLAIN

CITY           SKY/WX    TMP DP  RH WIND       PRES   REMARKS
AHOSKIE          N/A     62  23  22 S8        30.41F
CLINTON        SUNNY     66  39  36 S5        30.40F
ELIZABETHTOWN  SUNNY     65  43  43 E8        30.39F
GOLDSBORO      MOSUNNY   66  28  23 S8        30.40F
GREENVILLE     SUNNY     66  28  24 S9G16     30.41F
HAVELOCK       PTSUNNY   65  40  39 NE8       30.43F
KENANSVILLE    SUNNY     66  37  34 S5        30.40F
KINSTON        SUNNY     66  32  28 CALM      30.43F
NEW BERN       SUNNY     65  42  43 E8        30.43F
RICHLANDS      PTSUNNY   67  43  41 VRB3      30.42F
ROCKY MOUNT    SUNNY     63  22  20 S8        30.41F
WASHINGTON     SUNNY     63  33  32 S5        30.42F
WHITEVILLE     CLOUDY    65  44  46 NE3       30.37F

$$

AMZ130-135-150-152-154-156-158-170-250-252-270-ANZ085-086-088-633-658-670-271900-
MARINE OBSERVATIONS

STATION/POSITION TIME  TEMP    WIND        PRES    WAVE   SWELL
                       AIR SEA DIR/SP/G            HT/PER HT/PER
                 (UTC) (F)     (DEG/KT/KT) (MB)    (FT/S) (FT/S)
CHESAPEAKE LIGHT NOT AVBL
64 E VA BEACH    1750   53 49  100/  4/  6 1030.5    3/ 8   2/ 8
DUCK             1800   57 49  130/  4/  5 1030.1
2 E DUCK         1730      52                N/A     2/ 9
OREGON INLET     1800   55 54   10/  5/  8 1030.6
13E OREGON INLT  NOT AVBL
HATTERAS CG      1800   56 61   10/ 13/ 14 1029.8
DIAMOND BUOY     1750   63 71  140/ 12/ 16 1030.4    4/ 8   3/ 8
CAPE LOOKOUT     1800   64     110/  4/  4 1029.5
BEAUFORT LAB     1800   64 61  120/  7/  9 1029.0
30 SE NEW RVR IN 1808   65     150/  8/ 12 1029.5
30 SE NEW RVR IN 1743      65                N/A     3/ 8
27 SE WRIGHTSVLE 1808   65 61  140/  8/ 12 1028.6
5 SE WRIGHTSVLE  1808   59 58   40/ 10/ 17 1029.7
225 S CAPE HAT   1750   67 70   90/ 14/ 17 1028.7    4/ 8   3/ 8
41 SE CHARLESTON 1750   69 69  130/ 14/ 17 1026.9    4/ 5   2/ 8

$$




USA.gov is the U.S. government's official web portal to all federal, state and local government web resources and services.